Погода в Цимлянске

Погода в Цимлянске : погода сейчас, прогноз погоды и архив. Всё, что Вы хотите узнать о погоде в Цимлянске!

Хотите узнать прогноз погоды в Цимлянске? Тогда Вам сюда: Погода в Цимлянске

Поиск расширенной информации на нашем сайте:

Другие новости

Новости СМИ2

Главная страница сайта

Новости сайта

02.10.2013

Напоминаем, что на нашем новом сайте вы можете получить высокодетализированные прогнозы погоды по пунктам России, СНГ и мира (включающие важные для авиации метеовеличины, такие как направление и скорость ветра, видимость, явления погоды, количество и форма облачности, нижняя и верхняя граница облачности), а также ознакомиться с разнообразными материалами по авиационной метеорологии и подборкой полезных ссылок на эту тему.

Сайт Метеоцентр.Азия посвящён разработке технологий оптимизации авиаметеорологического обслуживания, включая проектирование и перспективное создание нескольких автоматизированных авиаметеорологических систем:
- система выпуска высокодетальных прогностических карт явлений погоды для нижнего воздушного пространства по России и ближнему зарубежью;
- система верификации прогнозов TAF (выпускаемых синоптиками официальных АМСГ РФ и ближнего зарубежья) и AUTOTAF (выпускаемых сайтом Метеоцентр.Азия) - выявление ошибок, онлайн-сопоставление с фактической погодой METAR, автоматическое внесение коррективов в прогнозы при резком отклонении фактической погоды от прогноза, подсчёт оправдываемости прогнозов по элементам и в целом;
- система обработки, анализа и отображения авиаметеорологической информации для применения провайдерами метеорологической информации.

Рекомендуем: Подробности сканер штрих кода у нас.

Погода в Цимлянске - сегодня

Время (UTC), дата Ветер
(°,м/с) 
Видим.   Явления Облачность Т
(°С)
Тd
(°С)
f(%) Тe
(°С)
Pmin
(гПа)
dP
(гПа)
Po
(мм)
O2
(г/м3)
Тmin Tmax R s Состояние
почвы
09 25.06.17 100 (В) 20000 м    ясно 
+21.5 +8.6 44 +22  1014.1  0.6  755  280           
12 25.06.17 100 (В) 20000 м    4/4 1000 м 
[Cu med, cong]
+23.4 +10.4 44 +25  1014.1  0.1  755  278           
15 25.06.17 250 (З) 20000 м    9/0 средняя 
[Ac As]
+23.7 +11.1 45 +26  1014.2  -0.1  755  278    +25.5       
18 25.06.17 240 (ЮЗ) 20000 м    10/0 средняя 
[Ac und]
+21 +13.9 64 +28  1015.1  0.8  756  280           
21 25.06.17 230 (ЮЗ) 20000 м    6/0 средняя 
[Ac trans]
+19 +14.6 76 +29  1015.8  0.6  756  282           
00 26.06.17 230 (ЮЗ) 20000 м    6/0 средняя 
[Ac trans]
+18 +12.3 69 +23  1015.4  -0.4  756  283           
03 26.06.17 тихо ()   10 км    ясно 
+18.2 +15.3 83 +27  1015.5  0.2  756  282  +16.5        сухая 
06 26.06.17 250 (З) 20000 м    3/0 средняя, верхняя 
[Ac trans|Ci fib]
+23.3 +17.2 69 +36  1016  0.3  756  277           
09 26.06.17 120 (ЮВ) 20000 м    8/6 600 м верхняя 
[Cu med, cong|Ci fib]
+26.7 +17.5 57 +40  1015.4  -0.4  756  274           
12 26.06.17 120 (ЮВ) 20000 м    8/5 600 м верхняя 
[Cu med, cong|Ci fib]
+28.2 +16.8 50 +40  1014.6  -0.8  755  272           
15 26.06.17 150 (ЮВ) 20000 м    6/3 1000 м верхняя 
[Cu hum|Ci fib]
+28.4 +17.1 50 +41  1014  -0.6  755  272    +28.5       
18 26.06.17 070 (В) 20000 м    3/0 средняя 
[Ac trans]
+24.3 +17.9 67 +38  1013.8  -0.3  755  275           
21 26.06.17 080 (В) 20000 м    3/0 верхняя 
[Ci fib]
+22.1 +17.6 76 +35  1013.7  -0.2  755  277           
00 27.06.17 140 (ЮВ) 20000 м    ясно 
+22.7 +16.3 67 +34  1013.8  0.2  755  277           
03 27.06.17 150 (ЮВ) 20000 м    ясно 
+20.7 +14.2 66 +28  1013.9  755  280  +19.9        влажная 
06 27.06.17 160 (Ю) 20000 м    ясно 
+25.1 +16.1 57 +36  1013.8  755  275           
09 27.06.17 150 (ЮВ) 20000 м    3/1 1000 м верхняя 
[Cu hum|Ci fib]
+29.3 +13.2 37 +35  1013.1  -0.6  754  272           
12 27.06.17 070 (В) 20000 м    3/1 1000 м верхняя 
[Cu hum|Ci fib]
+29.7 +11.1 32 +32  1011.9  -1.1  753  272           
15 27.06.17 050 (СВ) 20000 м    6/0 верхняя 
[Ci fib]
+29.7 +10.8 31 +32  1010.9  -1  753  272    +30.5       
18 27.06.17 050 (СВ) 20000 м    3/0 верхняя 
[Ci fib]
+25.7 +10.4 38 +27  1011.4  0.3  753  275           
21 27.06.17 060 (СВ) 20000 м    ясно 
+23.2 +16.9 68 +35  1011.2  -0.2  753  276           
00 28.06.17 050 (СВ) 20000 м    4/0 верхняя 
[Ci fib]
+22.2 +16 68 +33  1010.6  -0.6  752  277           
03 28.06.17 040 (СВ) 20000 м    1/0 верхняя 
[Ci fib]
+22.9 +16.1 66 +33  1011.5  0.8  753  276  +19.8        сухая 
06 28.06.17 020 (С) 20000 м    ясно 
+26.4 +15.3 50 +35  1011.4  0.1  753  273           
09 28.06.17 100 (В) 20000 м    3/3 1000 м 
[Cu hum]
+31.2 +16.7 42 +43  1011.2  0.1  753  269           
Время (UTC), дата Ветер
(°,м/с) 
Видим.   Явления Облачность Т
(°С)
Тd
(°С)
f(%) Тe
(°С)
Pmin
(гПа)
dP
(гПа)
Po
(мм)
O2
(г/м3)
Тmin Tmax R s Состояние
почвы

Для получения пояснительной информации подведите курсор к названию столбца.

ПОГОДА в Цимлянске - архив

Всё, что Вы хотите узнать о погоде в Цимлянске - удобно и подробно!

Выберите нужную дату (начиная с 1 января 2015* года) и нажмите кнопку "Найти".
Будут отображены архивные сводки погоды по пункту Цимлянск, начиная с указанной даты.


Отображать данные в формате CSV (для использования в таблицах Excel)


Внимание! Наш архив погоды предназначен исключительно для личного некоммерческого использования в познавательных целях. Если Вам необходимы официальные справки о состоянии погоды (для производственных, юридических, коммерческих и т.п. целей), обращайтесь в органы Росгидромета.

*Примечание: данная дата относится к архиву по метеостанциям СССР (Россия, СНГ, Балтия).
Архив по метеостанциям Зарубежной Европы и Азии (кроме Китая) хранится 10 дней, по другим регионам земного шара (Китай, Африка, Америка, Австралия, Океания) - 1 день.

Цимлянск - район местоположения метеостанции


Название, широта, долгота, высота метеостанции:
Цимлянск 47.6°ш. 42.1°д. 65 м над ур. моря [Российская Федерация]

Дополнительная информация

В oтличие oт бoльшинства пoгoдных сайтoв мы публикуем пoдрoбную метеoинфoрмацию в детальнoм прoфессиoнальнoм фoрмате.

Характеристики температуры и влажнoсти вoздуха измеряются на высoте 2 м в тени вдали oт зданий и деревьев.
Скoрoсть ветра измеряется на высoте 10 м (на урoвне рoста челoвека скoрoсть ветра ниже в 1.5-2 раза). Если метеoстанция нахoдится в гoрoде или в лесу, тo скoрoсть ветра занижена на 2-4 м/с пo сравнению с oткрытым местoм. Скoрoсть ветра над акватoриями крупных рек и oзёр, а также на вершинах хoлмoв на 2-5 м/с выше, чем в oбычных услoвиях.
Атмoсфернoе давление в разных тoчках местнoсти мoжет значительнo oтличаться oт давления на метеoстанции, в зависимoсти oт услoвий рельефа (при пoдъёме на 10 м давление пoнижается примернo на 1 мм рт.ст.).